Tracking 19562 objects as of 22-Mar-2019
HD Live streaming from Space Station
objects crossing your sky now

GORIZONT 25

Track GORIZONT 25 now!
GORIZONT 25 is classified as:


NORAD ID: 21922
Int'l Code: 1992-017A
Perigee: 35,794.9 km
Apogee: 36,028.4 km
Inclination: 15.0 °
Period: 1,442.1 minutes
Semi major axis: 42282 km
RCS: 6.3246 m2 (large)
Launch date: April 2, 1992
Source: Commonwealth of Independent States (former USSR) (CIS)
Launch site: TYURATAM MISSILE AND SPACE COMPLEX (TTMTR)

Six C-band; 1 Ku-band.
aabbcc
Your satellite tracking list
Your tracking list is empty




NASA's NSSDC Master Catalog

Two Line Element Set (TLE):
1 21922U 92017A   19078.69355177 -.00000374 +00000-0 +00000-0 0  9998
2 21922 015.0198 004.1197 0027614 035.7937 150.2373 00.99852525098517
Source of the keplerian elements: AFSPC